Regional Weather Roundup
Issued by NWS

Home | Current Version | Previous Version | Text Only | Print | Product List | Glossary On
Versions: 1 2 3 4 5 6 7 8 9 10 11 12 13 14 15 16 17 18 19 20 21 22 23 24 25 26 27 28 29 30 31 32 33 34 35 36 37 38 39 40 41 42 43 44 45 46 47 48 49 50
000
ASCA44 KEWX 111520
RWRMX

LATIN AMERICA AND CARIBBEAN REGIONAL WEATHER ROUNDUP
NATIONAL WEATHER SERVICE AUSTIN/SAN ANTONIO TX
900 AM CST THU FEB 11 2016

NOTE: "FAIR" INDICATED FEW OR NO CLOUDS BELOW 12,000 FEET WITH NO
SIGNIFICANT WEATHER AND/OR OBSTRUCTIONS TO VISIBILITY.

BAJA CALIFORNIA

CITY           SKY/WX    TMP DP  RH WIND       PRES   REMARKS
LORETO         MOSUNNY   70  48  46 W6        30.02S
LA PAZ         SUNNY     52  45  76 S3        30.06
MEXICALI       CLEAR     48  28  46 NE3       30.13
S.J. DEL CABO  SUNNY     64  45  48 CALM      30.05R
TIJUANA        CLEAR     63  18  17 SE9       30.10R

NORTHWESTERN MEXICO

CITY           SKY/WX    TMP DP  RH WIND       PRES   REMARKS
CULIACAN       MOSUNNY   68  61  77 N5        29.98
DURANGO        MOSUNNY   45  25  45 CALM      30.40
GUAYMAS        MOSUNNY   68  41  37 CALM      29.99
HERMOSILLO     SUNNY     54  34  47 CALM      30.09
CD. JUAREZ     MOSUNNY   39  27  60 S6        30.30  WCI  35
LOS MOCHIS     PTSUNNY   61  55  82 CALM      30.01S
OBREGON        MOSUNNY   54  39  58 N3        29.98

NORTHEASTERN MEXICO

CITY           SKY/WX    TMP DP  RH WIND       PRES   REMARKS
CHIHUAHUA      SUNNY     39  14  35 S5        30.32  WCI  36
MATAMOROS      SUNNY     63  57  82 SE12      30.25
MONCLOVA       SUNNY     57  28  33 S6        30.19S
MONTERREY      SUNNY     54  28  37 NW5       30.18R
NUEVO LAREDO   SUNNY     52  39  62 S5        30.17
PIEDRAS NEGRAS SUNNY     50  30  46 SE5       30.18R WCI  48
REYNOSA        SUNNY     55  41  58 S9        30.20
SALTILLO       SUNNY     57  37  47 S14       30.36
TORREON        SUNNY     54  28  37 CALM      30.31R
CD. VICTORIA   SUNNY     63  46  55 S10G23    30.22

WESTERN MEXICO

CITY           SKY/WX    TMP DP  RH WIND       PRES   REMARKS
AGUASCALIENTES SUNNY     45  27  49 N12       30.41  WCI  39
COLIMA         MOSUNNY   70  48  46 N12       30.10S
DEL BAJIO      SUNNY     48  34  57 CALM      30.43R
GUADALAJARA    SUNNY     54  32  43 CALM      30.34
MANZANILLO       N/A    N/A N/A N/A MISG        N/A
MAZATLAN       SUNNY     61  57  88 NE3       30.02R
P. VALLARTA    PTSUNNY   66  59  77 N5        30.02R
URUAPAN        SUNNY     52  46  82 CALM      30.26S
ZACATECAS      SUNNY     41  23  48 CALM      30.40R

CENTRAL MEXICO

CITY           SKY/WX    TMP DP  RH WIND       PRES   REMARKS
CUERNAVACA       N/A    N/A N/A N/A MISG        N/A
MEXICO CITY    SUNNY     46  34  61 E3        30.44S
MORELIA        SUNNY     48  37  66 CALM      30.36
POZA RICA      SUNNY     59  54  82 CALM      30.30R
PUEBLA         SUNNY     41  34  75 N7        30.41S WCI  36
QUERETARO      SUNNY     43  37  81 CALM      30.44R
S. LUIS POTOSI SUNNY     37  30  75 CALM      30.40R
TAMPICO        SUNNY     63  55  77 SW7       30.28R
TOLUCA         SUNNY     37  34  87 CALM      30.46R FOG

SOUTHERN MEXICO

CITY           SKY/WX    TMP DP  RH WIND       PRES   REMARKS
ACAPULCO       MOSUNNY   79  63  57 NE3       29.99R
B. DE HUATULCO SUNNY     75  50  41 CALM      30.05
OAXACA         SUNNY     50  37  62 N6        30.39S WCI  48
P. ESCONDIDO   SUNNY     79  41  25 E5        30.08R
VERACRUZ       SUNNY     68  57  68 NW5       30.30R
ZIHUATANEJO    SUNNY     77  70  78 CALM      29.98R

YUCATAN PENINSULA

CITY           SKY/WX    TMP DP  RH WIND       PRES   REMARKS
CAMPECHE       MOSUNNY   64  55  72 E14       30.26S
CANCUN         PTSUNNY   68  61  77 NW6       30.26R
CHETUMAL       MOSUNNY   66  61  82 CALM      30.27
CD. DEL CARMEN MOSUNNY   68  54  60 E13       30.29
COZUMEL        PTSUNNY   68  59  73 N14       30.25R
MERIDA         PTSUNNY   70  52  52 N6        30.29R
MINATITLAN     PTSUNNY   64  61  88 CALM      30.23
TAPACHULA      SUNNY     81  70  69 E3        30.02R
TUX. GUTIERREZ SUNNY     61  50  67 N2        30.26R
VILLAHERMOSA   SUNNY     66  57  72 E9        30.30R

CENTRAL AMERICA

CITY           SKY/WX    TMP DP  RH WIND       PRES   REMARKS
BELIZE CITY    MOSUNNY   66  61  82 N6        30.26R
MANAGUA        MOSUNNY   82  63  51 E18       29.97R

CARIBBEAN

CITY           SKY/WX    TMP DP  RH WIND       PRES   REMARKS
ARUBA          MOSUNNY   88  72  58 E22G33    30.00S HX  94
CURACAO        MOSUNNY   86  72  62 SE15      30.03F HX  92
KINGSTON       LGT RAIN  77  70  78 N13       30.09S
NASSAU           N/A     70  54  56 NW7       30.29R
SAN JUAN       MOSUNNY   81  70  69 E12       30.12F
SANTO DOMINGO  MOSUNNY   86  70  58 E8        30.09F HX  90
ST. CROIX      MOSUNNY   84  63  48 E14       30.12F
ST. KITTS      PTSUNNY   84  64  51 SE12      30.12S
ST. MAARTEN    PTSUNNY   81  68  65 E10       30.12S
ST. THOMAS     SUNNY     81  68  65 SE15G23   30.12

$$




USA.gov is the U.S. government's official web portal to all federal, state and local government web resources and services.